Tucson Davis Monthan, AZ

7:20 PM MST on June 23, 2017 (GMT -0700)
Davis-Monthan Air Force Base

Weather History for KDMA - July, 2013

Change the Weather History Date:

Sunday, July 21, 2013

  Actual Average Record
Temperature  
Mean Temperature 81 °F -  
Max Temperature 89 °F 96 °F 107 °F (2006)
Min Temperature 73 °F 73 °F 65 °F (1986)
Cooling Degree Days 16    
Growing Degree Days 31 (Base 50)    
Moisture  
Dew Point 66 °F    
Average Humidity 62    
Maximum Humidity 89    
Minimum Humidity 38    
Precipitation  
Precipitation 0.00 in - - ()
Sea Level Pressure  
Sea Level Pressure 29.86 in    
Wind  
Wind Speed 6 mph (SW)    
Max Wind Speed 17 mph    
Max Gust Speed 23 mph    
Visibility 10 miles    
Events Rain    
Averages and records for this station are not official NWS values.
T = Trace of Precipitation, MM = Missing Value Source: NWS Daily Summary

Daily Weather History Graph

Daily Weather History Graph

Search for Another Location

Airport or City:

Trip Planner

Search our weather history database for the weather conditions in past years. The results will help you decide how hot, cold, wet, or windy it might be!

Date:

Astronomy

Jul. 21, 2013 Rise Set
Actual Time 5:31 AM MST 7:27 PM MST
Civil Twilight 5:04 AM MST 7:55 PM MST
Nautical Twilight 4:31 AM MST 8:28 PM MST
Astronomical Twilight 3:55 AM MST 9:03 PM MST
Moon 6:31 PM MST (7/21) 4:20 AM MST (7/21)
Length of Visible Light 14h 51m
Length of Day
13h 56m
Waxing Gibbous, 99% of the Moon is Illuminated
Jul 21
Waxing Gibbous
Jul 22
Full
Jul 29
Last Quarter
Aug 6
New
Aug 14
First Quarter

Hourly Weather History & Observations

Time (MST) Temp. Heat Index Dew Point Humidity Pressure Visibility Wind Dir Wind Speed Gust Speed Precip Events Conditions
12:58 AM 75.2 °F - 71.6 °F 89% 29.80 in 10.0 mi ESE 3.5 mph - N/A   Scattered Clouds
1:58 AM 74.5 °F - 70.5 °F 87% 29.78 in 10.0 mi ESE 5.8 mph - N/A   Partly Cloudy
2:58 AM 74.3 °F - 70.0 °F 86% 29.79 in 10.0 mi SE 6.9 mph - N/A   Scattered Clouds
3:58 AM 73.8 °F - 70.3 °F 89% 29.80 in 10.0 mi SE 8.1 mph - N/A   Mostly Cloudy
4:58 AM 73.8 °F - 69.6 °F 87% 29.81 in 10.0 mi SE 9.2 mph - N/A   Overcast
5:58 AM 74.3 °F - 68.4 °F 82% 29.83 in 10.0 mi SSE 5.8 mph - N/A   Overcast
6:58 AM 75.4 °F - 68.2 °F 78% 29.85 in 10.0 mi SE 4.6 mph - N/A   Mostly Cloudy
7:58 AM 77.9 °F - 68.2 °F 72% 29.86 in 10.0 mi South 5.8 mph - N/A   Mostly Cloudy
8:03 AM 78.8 °F - 68.0 °F 69% 29.98 in 10.0 mi Variable 5.8 mph - N/A   Light Drizzle
8:36 AM 78.8 °F - 68.0 °F 69% 29.98 in 10.0 mi SSE 6.9 mph - N/A   Mostly Cloudy
8:40 AM 78.8 °F - 68.0 °F 69% 29.98 in 10.0 mi SSE 5.8 mph - N/A Rain Light Rain
8:55 AM 78.8 °F - 66.2 °F 65% 29.98 in 10.0 mi SSE 2.3 mph - N/A   Overcast
8:58 AM 79.2 °F - 67.1 °F 66% 29.86 in 10.0 mi South 2.3 mph - 0.00 in   Overcast
9:58 AM 82.2 °F 84.4 °F 66.0 °F 58% 29.87 in 10.0 mi SSW 5.8 mph - N/A   Scattered Clouds
10:58 AM 83.7 °F 85.1 °F 64.2 °F 52% 29.86 in 10.0 mi SSW 8.1 mph - N/A   Partly Cloudy
11:58 AM 85.5 °F 85.9 °F 62.1 °F 45% 29.85 in 10.0 mi SSW 8.1 mph - N/A   Clear
12:58 PM 87.4 °F 87.7 °F 62.1 °F 42% 29.81 in 10.0 mi Variable 1.2 mph - N/A   Partly Cloudy
1:30 PM 87.8 °F 87.6 °F 60.8 °F 40% 29.94 in 10.0 mi WNW 9.2 mph - N/A   Light Drizzle
1:58 PM 86.9 °F 87.8 °F 63.3 °F 45% 29.81 in 10.0 mi WNW 5.8 mph - 0.00 in   Light Drizzle
2:02 PM 87.8 °F 88.5 °F 62.6 °F 43% 29.94 in 10.0 mi WNW 5.8 mph - N/A   Scattered Clouds
2:58 PM 88.0 °F 88.4 °F 62.1 °F 42% 29.79 in 10.0 mi West 12.7 mph 17.3 mph 0.00 in   Partly Cloudy
3:18 PM 87.8 °F 88.5 °F 62.6 °F 43% 29.92 in 10.0 mi West 5.8 mph - N/A   Light Drizzle
3:32 PM 89.6 °F 89.5 °F 60.8 °F 38% 29.92 in 10.0 mi West 9.2 mph - N/A   Scattered Clouds
3:58 PM 88.2 °F 90.3 °F 65.3 °F 47% 29.80 in 10.0 mi NNW 17.3 mph 23.0 mph 0.00 in   Mostly Cloudy
4:58 PM 85.3 °F 87.4 °F 65.8 °F 52% 29.78 in 10.0 mi NW 11.5 mph 20.7 mph N/A   Clear
5:58 PM 86.4 °F 88.7 °F 66.6 °F 51% 29.80 in 10.0 mi NW 12.7 mph - N/A   Clear
6:58 PM 85.1 °F 86.9 °F 65.1 °F 51% 29.81 in 10.0 mi NNW 11.5 mph - N/A   Partly Cloudy
7:58 PM 82.9 °F 84.8 °F 65.5 °F 55% 29.83 in 10.0 mi WNW 6.9 mph - N/A   Mostly Cloudy
8:58 PM 81.7 °F 83.5 °F 65.3 °F 57% 29.85 in 10.0 mi NW 5.8 mph - N/A   Clear
9:58 PM 79.7 °F - 68.0 °F 67% 29.86 in 10.0 mi WSW 4.6 mph - N/A   Clear
10:58 PM 78.3 °F - 68.9 °F 73% 29.87 in 10.0 mi SW 4.6 mph - N/A   Clear
11:58 PM 77.5 °F - 68.5 °F 74% 29.88 in 10.0 mi West 3.5 mph - N/A   Mostly Cloudy